Wetbulb
65.29 66.21 64.28 60.04 52.05 51.53 48.20 49.83 52.93 51.12 51.45 54.98 56.50 55.39 55.22 56.44 54.67 53.15 67.05 69.22 70.98 72.86 75.73 74.72 73.27 73.77 73.69 73.52 73.38 73.44 73.65 74.10 74.00 73.64 73.63 74.04 73.99 73.88 74.51 74.44 74.53 74.71 74.67 74.57 74.25 73.70 73.00 72.85 73.06
65.80 63.92 62.69 56.99 49.23 45.76 47.51 52.23 51.01 52.44 53.87 56.01 55.46 55.43 55.09 54.40 58.69 59.55 63.32 69.93 71.50 72.77 76.14 75.05 72.95 73.39 73.66 73.34 73.20 73.25 74.03 74.28 73.93 73.59 73.78 73.94 73.88 74.27 74.39 74.09 73.92 74.25 74.57 74.45 73.42 72.97 72.85 72.64 72.40
65.58 63.28 56.91 53.33 50.61 46.60 47.49 51.88 52.43 53.13 53.89 53.32 53.12 55.89 55.43 55.27 59.02 60.87 68.40 70.83 72.42 72.85 75.84 75.26 72.57 72.88 73.24 73.18 72.99 73.12 73.44 73.55 73.40 73.13 73.78 74.02 73.94 74.27 74.11 73.58 73.46 74.05 74.34 74.10 72.94 72.62 72.46 71.81 71.41
61.74 60.43 58.38 50.05 47.35 49.97 50.70 52.47 53.60 51.83 53.73 54.50 54.26 52.89 56.91 59.66 59.69 63.51 66.69 69.97 72.48 72.90 75.48 71.91 71.60 72.46 73.16 73.09 72.90 72.99 72.92 72.68 72.65 72.70 73.50 73.86 73.89 74.30 73.71 73.04 73.18 73.68 73.72 73.70 72.82 72.32 71.52 70.70 70.27
60.66 57.21 50.00 48.87 49.55 52.03 53.76 53.99 54.23 52.39 52.79 53.28 54.17 52.33 54.01 58.17 60.44 60.98 65.85 68.85 71.99 73.54 75.28 74.95 70.91 71.95 73.04 73.17 73.11 72.69 72.65 72.19 72.28 72.53 73.21 73.30 73.53 73.66 73.04 72.46 72.83 73.01 73.14 72.92 72.40 71.54 70.71 69.98 69.57
53.39 54.91 48.47 46.58 48.52 51.55 52.91 54.86 54.43 53.64 53.94 53.67 53.25 53.30 54.79 59.19 59.76 62.71 70.00 69.99 72.46 73.98 75.38 76.28 72.08 71.89 72.12 72.54 72.40 72.07 71.93 71.83 71.84 72.13 72.64 73.09 72.98 72.63 72.33 72.21 72.44 72.36 72.10 71.85 71.30 70.40 69.95 69.41 69.07
52.66 50.72 46.90 47.52 47.88 49.57 51.99 54.97 52.70 52.96 53.29 52.89 55.02 51.73 54.96 56.62 64.67 68.29 70.97 72.51 72.65 75.53 76.34 76.48 74.72 73.45 71.52 71.05 71.13 71.05 71.10 71.18 71.36 71.61 71.88 72.02 71.73 71.21 71.69 72.00 71.86 71.50 71.25 70.88 70.43 69.64 68.88 68.56 67.96
58.11 54.82 49.70 49.35 47.56 48.02 52.55 53.33 54.50 52.98 52.47 56.51 55.72 50.91 52.27 58.72 66.06 67.25 70.12 73.69 74.16 75.86 76.52 76.48 75.28 74.41 74.35 74.40 70.34 70.29 70.50 70.43 70.78 71.13 71.13 70.65 70.67 70.92 71.14 70.92 71.04 70.88 70.65 70.34 69.80 68.79 68.28 67.62 66.93
60.32 52.52 50.03 50.57 50.46 51.42 54.18 52.29 54.42 55.08 53.02 53.75 54.48 54.14 55.89 60.84 64.76 64.68 67.12 71.26 73.54 74.52 75.62 75.63 75.13 74.17 74.70 73.81 73.28 71.02 70.82 70.61 70.43 71.21 70.60 69.85 73.04 72.84 72.21 70.69 69.97 70.28 69.85 69.29 68.79 68.17 67.30 66.49 66.13
56.66 51.74 51.76 55.58 55.93 54.73 55.92 55.41 54.74 53.68 52.37 52.34 53.15 56.25 57.65 58.83 59.99 60.91 61.98 63.20 70.75 72.49 74.26 74.19 73.94 74.59 74.38 73.17 74.21 73.80 73.15 73.52 73.09 72.62 73.17 73.03 72.77 72.65 71.84 70.86 69.17 69.21 68.66 68.24 67.95 67.21 66.43 66.35 67.54
56.80 52.32 55.82 56.05 57.09 57.32 56.19 56.15 58.09 55.42 52.77 54.64 54.30 56.09 57.79 57.42 58.73 58.88 58.76 60.15 62.84 68.68 73.54 74.05 74.44 75.35 74.39 74.60 74.17 73.75 73.55 73.15 73.86 73.67 73.70 73.09 72.26 72.80 72.26 71.91 71.40 71.10 68.77 68.81 68.06 67.65 67.19 67.27 67.10
53.34 56.02 56.47 56.52 57.10 56.26 55.04 57.07 55.68 56.47 56.51 59.14 59.48 59.76 59.43 58.81 58.81 59.12 59.41 60.21 60.72 63.23 70.44 73.91 74.09 74.49 74.58 74.48 73.81 73.57 73.58 72.77 74.28 73.82 73.16 72.33 72.91 72.48 72.16 71.75 70.81 70.25 69.38 68.43 68.32 67.92 68.47 68.65 68.17
51.87 53.27 54.85 55.76 55.39 55.22 55.63 54.04 54.15 55.15 58.14 59.24 59.31 59.16 58.79 59.00 59.17 60.34 60.85 61.39 61.74 61.60 66.50 72.92 74.05 73.88 73.58 73.65 72.68 73.88 73.04 72.39 74.61 74.07 73.08 72.55 72.74 72.00 72.20 71.41 70.59 70.03 69.06 69.32 68.96 68.89 69.02 69.05 68.48
51.12 50.80 51.21 52.54 52.73 53.01 51.73 51.99 53.09 54.16 57.16 57.42 58.01 58.08 58.89 59.12 59.65 60.47 61.52 61.87 62.80 62.44 64.40 71.94 74.02 74.50 73.02 73.04 72.91 74.20 74.23 73.79 74.02 74.02 73.38 73.60 72.91 72.07 71.69 71.37 70.50 70.12 68.96 69.41 69.32 68.85 68.64 68.53 68.59
49.74 46.86 49.10 49.96 50.90 50.65 52.25 48.72 50.05 54.68 56.17 55.37 55.82 56.94 58.43 59.62 60.80 60.79 61.84 62.39 63.52 63.66 63.67 67.51 74.85 75.47 73.18 72.82 72.09 73.75 74.27 73.58 73.92 73.40 73.82 73.86 73.58 72.76 72.34 71.33 70.62 70.34 69.08 70.00 69.79 70.38 69.20 68.19 68.00
45.32 46.21 41.88 47.42 49.02 49.64 49.22 43.75 50.29 54.03 54.02 53.68 55.51 56.36 57.32 58.69 60.07 61.23 62.11 62.28 63.00 63.58 64.17 66.45 70.19 74.97 73.91 73.31 73.42 73.12 74.05 73.79 73.59 73.99 73.67 73.89 73.48 73.36 72.59 71.05 70.87 70.61 69.72 69.01 69.49 68.89 67.60 67.83 66.88
44.06 39.84 42.42 44.63 49.23 48.07 47.74 44.70 49.38 52.17 51.78 51.58 53.30 54.50 55.23 56.46 58.15 60.25 61.45 62.15 62.34 62.91 64.09 65.05 67.48 74.28 73.75 73.45 73.98 72.98 75.05 73.48 72.58 74.07 73.48 73.60 73.39 73.20 72.51 71.22 70.83 70.76 69.00 68.34 68.67 68.79 68.08 66.90 66.36
37.99 37.84 39.28 38.70 42.18 42.54 41.34 41.45 44.77 46.99 47.36 47.81 48.72 49.92 51.20 53.11 55.16 58.27 60.12 61.49 62.82 63.21 64.37 64.69 66.41 73.59 74.11 73.41 72.98 72.87 73.15 73.61 73.43 72.08 72.77 72.45 72.76 72.97 72.40 72.05 71.66 69.87 68.38 68.61 68.58 67.31 67.66 67.27 66.15
37.56 35.72 35.02 37.76 40.67 39.93 39.43 40.30 42.27 45.18 45.88 46.10 46.47 47.18 47.88 48.89 51.56 54.33 57.55 60.32 61.82 63.12 63.79 64.48 65.09 68.19 73.03 72.65 71.12 70.61 68.84 72.43 72.75 72.78 72.02 71.28 71.82 72.10 72.08 71.72 71.36 69.44 67.48 67.30 67.80 67.67 66.74 66.25 67.18
35.85 34.30 34.64 38.15 40.57 39.38 38.16 38.00 41.71 44.09 44.76 45.22 45.81 47.07 48.20 48.96 49.77 51.25 52.87 55.25 60.33 62.92 63.99 63.52 64.34 66.19 70.87 71.41 71.27 70.60 70.01 71.85 72.83 72.22 70.97 70.97 71.74 71.96 72.24 71.81 70.90 69.64 67.47 67.93 67.50 66.60 64.73 65.34 66.23
35.62 34.29 34.88 34.70 38.08 39.59 38.36 36.49 38.87 42.52 44.54 45.52 46.49 47.50 48.06 48.10 49.43 50.66 51.47 54.09 59.94 61.73 63.90 63.53 64.58 64.88 66.92 71.80 71.88 69.45 70.77 71.32 70.87 70.39 71.03 71.13 72.05 72.10 71.83 71.72 71.17 69.95 68.38 66.93 67.03 66.30 65.53 62.91 64.54
31.86 38.25 36.78 35.50 34.70 30.38 38.95 27.52 36.96 41.12 43.37 46.53 47.20 48.08 49.18 50.36 53.47 54.19 54.97 53.64 54.42 60.51 62.34 64.29 64.91 65.26 66.15 72.66 71.31 69.26 66.88 66.96 68.67 68.84 71.03 70.74 70.82 71.44 71.91 71.44 71.52 69.70 68.46 67.13 67.32 66.63 65.31 63.21 61.01
34.29 39.04 37.11 36.74 35.17 34.18 35.46 31.92 37.03 39.33 36.10 41.12 42.59 44.70 45.74 45.47 46.87 50.10 50.84 53.40 56.63 56.97 57.78 62.91 62.42 64.78 66.36 68.64 70.62 70.06 67.28 68.83 70.65 70.49 70.28 70.34 70.13 71.45 71.96 72.11 71.55 70.24 68.02 66.68 65.22 63.93 63.22 62.84 60.39
39.96 37.81 38.08 38.14 36.28 28.69 33.59 32.47 30.59 30.56 32.42 34.28 37.52 38.06 39.56 42.27 44.29 45.20 46.31 49.22 47.72 51.94 57.03 62.29 63.60 63.34 66.12 67.49 71.27 69.73 68.13 69.24 68.97 69.87 69.56 69.98 70.27 71.66 71.57 71.75 70.97 69.85 67.94 65.86 63.66 62.85 62.52 61.41 61.07
38.98 34.94 27.70 27.50 27.93 26.95 36.97 33.46 28.44 33.77 35.20 35.64 34.80 35.08 36.28 37.74 38.53 39.26 40.09 42.98 44.04 46.11 50.30 56.66 58.90 62.63 64.77 66.84 70.28 69.60 69.27 68.12 69.40 69.42 69.94 69.45 69.21 69.92 69.01 69.70 68.91 67.72 67.29 66.20 64.70 63.09 62.37 61.50 60.55
34.19 33.31 26.00 19.16 22.78 26.99 35.03 24.91 27.75 34.25 35.93 35.58 35.51 35.72 35.01 35.19 37.24 37.40 36.93 37.99 41.35 43.30 44.72 49.53 52.87 54.30 55.48 61.21 66.53 70.01 68.67 66.92 66.90 68.76 70.25 70.50 69.91 68.99 69.53 68.62 68.02 67.71 66.53 66.08 65.45 63.40 62.57 62.07 61.97
32.95 30.29 35.65 28.70 30.85 28.63 25.05 27.38 33.78 34.69 33.97 34.85 34.27 34.72 33.60 33.89 35.40 36.50 37.18 36.57 39.26 40.89 43.48 44.37 45.59 47.91 50.33 53.21 59.96 63.67 68.87 68.01 67.16 66.80 67.83 68.82 70.03 70.66 68.77 67.86 66.69 66.33 66.09 65.86 65.66 64.38 63.51 64.52 63.74
35.14 37.06 27.99 29.86 21.98 21.24 22.42 23.95 23.98 29.15 30.72 33.62 33.00 32.50 33.15 34.43 34.92 36.49 37.73 37.49 37.76 39.36 41.56 43.77 43.93 44.73 46.04 48.00 49.14 51.05 55.29 59.52 63.73 67.19 67.89 68.63 69.05 69.21 69.80 67.20 66.36 65.63 65.21 65.14 65.11 64.39 65.25 64.08 64.26
32.30 30.48 30.63 30.50 28.39 23.57 19.05 21.68 30.90 30.18 31.08 31.26 32.17 32.89 32.89 34.15 34.53 34.78 36.43 38.38 39.31 39.72 39.54 40.68 42.00 42.96 43.43 44.18 45.20 46.36 47.71 50.06 52.39 52.16 53.70 62.63 68.82 68.89 68.23 67.28 65.87 65.05 64.42 64.56 64.19 64.10 64.03 63.00 62.87
34.58 30.54 30.72 27.04 25.68 28.13 25.18 22.82 32.17 32.17 32.89 33.80 33.44 33.98 35.25 36.70 38.17 37.76 38.11 37.62 38.02 38.61 39.81 39.25 40.43 41.13 42.05 43.43 43.61 43.74 44.60 45.64 46.45 48.25 50.35 52.03 54.45 56.32 67.86 67.60 65.94 65.05 64.27 64.11 63.79 63.23 63.10 62.39 61.94
MSLP
1011.93 1010.47 1008.99 1007.96 1006.70 1003.86 1001.55 1000.05 999.47 1000.08 1000.68 1001.09 1002.01 1002.02 1001.49 1001.26 1000.71 1001.29 1002.55 1002.93 1003.22 1003.97 1005.85 1007.24 1007.78 1008.23 1008.64 1009.23 1009.91 1010.42 1010.80 1011.20 1011.67 1012.48 1012.58 1012.61 1013.28 1013.73 1014.38 1014.74 1014.96 1015.13 1015.30 1015.67 1016.12 1016.31 1016.66 1016.78 1017.05
1010.77 1009.58 1008.69 1006.90 1005.36 1002.63 1000.53 999.69 999.15 1000.07 1000.72 1002.01 1002.36 1002.27 1002.04 1001.47 1001.60 1001.75 1002.23 1003.19 1003.77 1004.16 1005.60 1006.75 1007.92 1008.22 1008.70 1009.30 1009.97 1010.59 1010.98 1011.41 1011.76 1012.35 1012.96 1013.00 1013.25 1013.74 1014.46 1014.92 1015.18 1015.40 1015.64 1015.95 1016.41 1016.63 1016.98 1017.29 1017.41
1011.30 1009.76 1008.18 1005.82 1004.35 1002.43 1000.76 999.79 999.63 1000.86 1002.09 1002.36 1002.16 1001.89 1001.84 1001.99 1002.10 1002.48 1002.51 1003.45 1003.89 1004.27 1005.28 1006.32 1007.87 1008.31 1008.73 1009.19 1009.80 1010.40 1010.84 1011.38 1011.98 1012.40 1013.07 1013.31 1013.40 1013.76 1014.28 1014.93 1015.36 1015.63 1015.90 1016.20 1016.65 1016.99 1017.32 1017.70 1017.78
1009.71 1008.57 1007.78 1006.00 1003.72 1002.36 1001.53 1001.02 1000.54 1001.49 1002.03 1002.52 1002.63 1002.22 1001.93 1002.44 1002.50 1002.57 1003.12 1003.53 1003.83 1004.13 1005.10 1006.93 1007.76 1008.34 1008.64 1009.14 1009.75 1010.39 1010.91 1011.28 1011.97 1012.58 1013.09 1013.70 1013.58 1013.89 1014.40 1014.90 1015.45 1015.87 1016.20 1016.52 1016.92 1017.44 1017.69 1018.05 1018.15
1009.60 1008.34 1006.31 1004.61 1003.27 1002.56 1001.98 1001.46 1001.40 1001.78 1002.19 1002.14 1002.15 1002.43 1002.35 1002.27 1002.58 1002.72 1003.43 1003.75 1003.80 1003.98 1005.00 1006.92 1007.86 1008.58 1008.87 1009.19 1009.70 1010.27 1010.91 1011.28 1011.77 1012.58 1013.09 1013.69 1013.94 1013.99 1014.47 1014.95 1015.51 1016.03 1016.41 1016.76 1017.27 1017.90 1017.99 1018.45 1018.45
1008.60 1007.35 1005.76 1003.79 1002.44 1001.67 1001.42 1001.56 1002.19 1002.11 1002.62 1002.53 1002.38 1002.30 1002.32 1002.56 1002.57 1002.87 1003.66 1003.93 1003.81 1004.11 1005.11 1006.61 1008.13 1008.48 1008.73 1009.11 1009.64 1010.16 1010.69 1011.21 1011.60 1012.23 1013.06 1013.75 1014.14 1014.25 1014.54 1015.00 1015.61 1016.14 1016.62 1017.10 1017.57 1018.20 1018.26 1018.74 1018.69
1008.65 1007.13 1005.04 1003.86 1002.69 1001.84 1001.79 1001.81 1001.77 1002.45 1002.93 1002.91 1002.81 1002.35 1002.33 1002.54 1002.83 1003.50 1004.01 1004.23 1004.02 1004.58 1005.59 1006.32 1007.67 1008.62 1008.84 1009.09 1009.47 1009.92 1010.48 1011.07 1011.45 1011.98 1013.02 1013.77 1014.28 1014.56 1014.69 1015.11 1015.68 1016.27 1016.81 1017.44 1017.88 1018.33 1018.61 1018.94 1019.04
1008.55 1007.27 1005.38 1004.16 1002.97 1001.65 1001.95 1001.65 1002.40 1002.83 1002.93 1003.39 1003.74 1003.00 1002.57 1002.64 1003.55 1003.67 1003.80 1004.63 1004.84 1005.31 1006.05 1006.46 1007.19 1007.98 1008.58 1009.16 1009.56 1009.91 1010.35 1011.08 1011.49 1011.76 1012.51 1013.82 1014.55 1014.89 1015.02 1015.32 1015.80 1016.39 1016.99 1017.59 1018.07 1018.54 1018.93 1019.15 1019.50
1008.58 1007.32 1005.05 1003.81 1002.75 1001.68 1001.71 1001.51 1002.02 1003.14 1003.86 1003.83 1003.72 1003.64 1003.59 1003.48 1003.83 1003.36 1003.49 1004.10 1004.97 1005.85 1006.07 1006.75 1007.14 1007.52 1007.88 1008.68 1009.38 1010.08 1010.52 1011.08 1011.64 1011.93 1012.41 1013.47 1014.35 1015.04 1015.45 1015.30 1015.97 1016.58 1017.26 1017.80 1018.26 1018.72 1019.16 1019.53 1019.82
1008.01 1006.41 1004.66 1004.11 1003.08 1002.15 1001.96 1002.19 1002.50 1002.91 1003.04 1003.34 1003.75 1003.69 1003.43 1003.25 1003.49 1003.11 1002.95 1003.10 1003.72 1004.92 1005.79 1006.79 1007.05 1007.18 1007.53 1008.22 1008.85 1009.51 1010.19 1010.69 1011.30 1011.70 1012.39 1012.74 1013.52 1014.54 1014.93 1015.49 1016.18 1016.81 1017.47 1017.93 1018.45 1018.99 1019.36 1019.63 1019.54
1007.19 1005.69 1005.20 1004.40 1004.16 1003.66 1002.91 1002.75 1002.88 1002.32 1002.00 1002.72 1003.13 1003.01 1002.66 1002.84 1002.82 1002.59 1002.43 1002.36 1002.35 1002.70 1004.23 1005.62 1006.45 1006.58 1007.10 1007.49 1008.10 1008.61 1009.40 1009.94 1010.52 1011.30 1011.91 1011.87 1012.83 1014.01 1014.57 1015.48 1016.22 1016.84 1017.64 1017.80 1018.55 1019.17 1019.05 1018.71 1018.85
1006.94 1006.07 1005.17 1004.72 1004.49 1004.07 1003.34 1002.97 1002.38 1002.38 1001.81 1002.40 1002.31 1002.26 1002.42 1002.42 1002.33 1002.10 1001.97 1001.82 1001.67 1001.89 1002.19 1004.11 1005.47 1006.18 1006.63 1006.96 1007.53 1007.79 1008.56 1009.33 1009.78 1010.35 1011.44 1011.40 1012.08 1013.26 1013.76 1014.64 1015.21 1015.88 1016.87 1017.04 1017.70 1018.32 1018.28 1018.17 1018.38
1007.38 1006.36 1005.66 1004.73 1004.45 1004.09 1003.62 1002.73 1002.04 1001.66 1001.97 1002.06 1002.02 1002.02 1001.96 1001.92 1001.80 1001.72 1001.41 1001.17 1001.10 1001.05 1001.34 1002.19 1004.13 1005.45 1006.18 1006.75 1007.20 1007.44 1007.95 1008.82 1008.91 1009.78 1010.86 1010.72 1011.37 1012.61 1013.22 1013.93 1014.31 1014.90 1016.02 1016.33 1016.92 1017.44 1017.61 1017.69 1018.08
1008.52 1007.30 1006.25 1005.46 1004.61 1004.56 1004.27 1002.26 1002.72 1001.70 1001.59 1001.19 1001.13 1001.13 1001.05 1000.86 1000.94 1000.96 1000.60 1000.34 1000.26 1000.39 1000.60 1001.00 1002.62 1004.36 1005.70 1006.17 1006.73 1006.67 1007.04 1007.66 1008.10 1008.89 1009.60 1010.23 1010.49 1011.87 1012.69 1013.46 1013.69 1014.20 1015.17 1015.75 1016.45 1016.68 1017.02 1017.57 1017.91
1008.52 1007.13 1005.92 1005.17 1004.44 1003.92 1004.20 999.75 1001.05 1000.67 1000.52 1000.01 999.95 999.90 999.64 999.50 999.46 999.50 999.70 999.56 999.53 999.49 999.83 1000.12 1001.00 1002.69 1004.53 1005.47 1006.21 1006.01 1006.04 1006.64 1007.19 1007.99 1008.90 1009.74 1010.02 1011.05 1011.83 1012.75 1013.11 1013.65 1014.59 1015.07 1015.72 1016.20 1016.80 1017.39 1017.80
1008.88 1007.37 1005.01 1004.36 1003.43 1002.95 1003.16 998.04 1000.78 999.93 999.24 998.57 998.40 998.22 997.87 997.85 997.84 998.07 998.36 998.64 999.03 998.61 998.89 999.36 999.77 1001.29 1002.93 1004.35 1005.07 1005.41 1004.90 1005.75 1006.27 1006.99 1008.09 1008.93 1009.48 1010.23 1011.15 1012.18 1012.54 1013.23 1014.09 1014.42 1014.99 1015.79 1016.64 1017.06 1017.60
1008.15 1005.43 1004.49 1002.98 1002.89 1002.29 1002.28 999.25 999.80 999.70 999.32 999.00 998.52 998.46 998.61 998.76 998.07 997.73 997.63 997.57 997.94 998.10 998.50 998.62 999.60 999.68 1001.64 1002.87 1003.67 1005.07 1004.49 1005.21 1005.63 1006.17 1007.07 1008.02 1009.06 1009.47 1010.39 1011.55 1012.13 1012.84 1013.72 1014.35 1014.62 1015.56 1016.34 1016.71 1017.18
1007.32 1006.42 1005.16 1003.78 1004.74 1003.85 1002.80 1000.77 999.20 1000.76 1000.19 999.57 998.89 999.00 998.60 998.38 998.07 997.98 997.62 997.01 996.83 997.32 997.44 997.81 998.68 998.94 1000.20 1001.56 1002.62 1003.34 1003.95 1004.25 1005.20 1005.82 1006.42 1007.32 1008.26 1008.96 1009.93 1010.66 1011.85 1012.67 1013.38 1013.93 1014.39 1015.08 1015.88 1016.24 1016.80
1009.72 1008.69 1006.98 1006.11 1006.11 1005.81 1004.08 1002.81 1000.25 1000.62 1000.77 1000.04 999.86 999.28 998.64 998.12 997.76 997.62 997.80 997.31 996.73 996.30 996.54 996.98 998.02 998.38 999.22 1000.12 1001.66 1002.21 1003.12 1003.47 1004.16 1004.94 1005.87 1006.67 1007.44 1008.27 1009.35 1010.04 1011.24 1012.42 1012.85 1013.19 1013.91 1014.79 1015.47 1015.89 1016.59
1010.97 1009.66 1008.18 1006.58 1006.65 1006.50 1004.95 1003.51 1001.92 1001.11 1000.68 1000.73 1000.00 999.02 998.55 998.41 998.14 997.59 997.12 997.03 996.43 995.83 996.18 996.29 996.90 997.60 998.29 999.75 1000.60 1001.25 1002.08 1002.58 1003.15 1003.93 1004.87 1005.65 1006.47 1007.17 1008.21 1009.28 1010.25 1011.53 1012.53 1013.11 1013.62 1014.29 1015.02 1015.66 1016.12
1011.06 1009.98 1008.75 1007.90 1007.07 1006.60 1005.05 1003.86 1002.48 1001.64 1001.19 1000.79 999.90 998.83 998.18 998.12 997.33 997.11 997.03 996.42 996.19 995.24 995.29 995.80 995.98 996.64 997.14 998.10 999.95 1000.97 1001.97 1002.61 1002.86 1003.40 1004.26 1004.81 1005.70 1006.43 1007.12 1008.49 1009.19 1010.71 1011.65 1012.48 1013.12 1013.88 1014.39 1014.81 1015.55
1011.09 1010.66 1009.72 1008.74 1007.70 1006.09 1005.92 1004.77 1002.90 1002.42 1001.67 1001.14 1001.56 1001.47 1000.53 1000.55 998.78 997.78 997.58 996.31 995.94 995.09 995.15 995.22 995.35 995.84 996.22 996.66 998.58 999.81 1000.72 1001.29 1001.89 1002.76 1003.23 1004.03 1004.87 1005.78 1006.42 1007.34 1008.30 1009.82 1010.82 1011.88 1012.76 1013.51 1013.91 1014.33 1015.44
1011.20 1010.32 1009.44 1008.53 1007.72 1007.23 1005.02 1005.82 1005.10 1005.61 1005.99 1005.68 1005.54 1005.45 1004.83 1004.23 1003.48 1002.11 1001.15 999.88 997.89 995.53 995.52 994.96 994.87 994.85 995.46 995.77 997.07 998.59 999.47 1000.34 1001.13 1001.87 1002.43 1003.30 1004.15 1004.51 1005.70 1006.57 1007.52 1008.67 1009.83 1011.01 1012.11 1013.28 1013.66 1013.96 1014.57
1011.45 1010.00 1008.63 1007.79 1006.80 1006.85 1005.88 1006.88 1008.63 1010.06 1011.23 1010.66 1010.36 1009.73 1009.04 1007.82 1006.71 1005.80 1004.48 1003.04 1001.35 1000.26 998.28 995.77 994.15 994.22 994.65 995.33 995.93 997.62 998.41 999.33 1000.13 1000.76 1001.48 1002.32 1003.22 1003.79 1004.60 1005.78 1006.72 1007.76 1008.69 1009.94 1010.95 1012.14 1012.84 1013.54 1013.90
1011.33 1010.72 1009.21 1007.56 1006.86 1006.37 1005.71 1007.27 1012.61 1013.27 1013.57 1013.53 1013.10 1012.75 1012.13 1011.39 1009.81 1008.49 1006.73 1005.42 1004.76 1003.30 1001.36 998.78 996.79 994.32 994.09 994.86 995.52 997.07 997.86 998.54 999.04 999.62 1000.06 1001.21 1002.23 1002.94 1003.85 1004.94 1006.00 1006.98 1007.82 1008.99 1010.03 1011.12 1011.82 1012.35 1013.06
1012.96 1012.62 1012.38 1010.78 1008.79 1007.70 1008.53 1011.00 1014.01 1014.65 1015.04 1015.30 1015.25 1014.92 1014.14 1013.30 1011.69 1010.34 1008.97 1007.91 1006.10 1004.87 1003.09 1001.47 999.35 997.50 997.06 995.85 995.25 996.38 997.38 998.26 998.27 998.95 999.21 999.80 1001.02 1001.95 1003.08 1004.16 1005.08 1006.12 1007.12 1007.87 1008.79 1009.88 1010.81 1011.70 1012.43
1014.45 1013.64 1013.58 1012.51 1010.98 1009.60 1012.75 1013.68 1013.16 1015.83 1016.24 1016.30 1016.54 1015.99 1015.32 1014.44 1013.01 1011.68 1011.08 1010.01 1009.19 1007.49 1005.31 1003.92 1001.81 1001.04 1000.28 999.16 997.83 996.89 997.13 998.12 998.27 998.51 998.84 999.62 1000.40 1000.94 1002.20 1003.18 1004.21 1005.25 1006.09 1006.93 1007.67 1008.33 1009.23 1010.46 1011.32
1015.30 1015.03 1014.17 1013.33 1012.01 1011.47 1013.70 1014.72 1017.06 1017.42 1017.57 1017.67 1017.26 1016.93 1016.41 1015.51 1014.31 1012.97 1012.01 1010.45 1010.23 1008.66 1007.30 1005.32 1003.60 1002.97 1002.22 1001.78 1001.07 1000.53 999.87 999.69 999.21 999.09 999.16 999.13 999.58 1000.19 1001.13 1002.24 1003.16 1004.18 1005.03 1005.86 1006.58 1007.16 1007.80 1008.92 1009.83
1015.65 1015.85 1015.67 1014.90 1013.90 1012.97 1014.39 1017.53 1019.14 1019.28 1019.17 1018.76 1018.41 1017.85 1017.24 1016.36 1015.11 1014.17 1012.91 1012.60 1011.50 1009.85 1008.61 1006.36 1005.24 1004.86 1003.77 1004.12 1003.66 1002.95 1002.44 1002.16 1001.74 1001.53 1001.36 1000.41 999.36 999.65 1000.42 1001.39 1002.27 1003.01 1004.07 1004.96 1005.60 1006.15 1006.72 1007.58 1008.58
1017.52 1017.31 1015.98 1014.53 1013.91 1014.43 1015.83 1018.93 1020.29 1020.17 1019.96 1019.34 1018.71 1018.21 1017.58 1016.65 1015.61 1014.94 1014.10 1013.30 1011.94 1011.14 1009.66 1008.97 1007.43 1006.95 1006.24 1006.22 1005.66 1005.11 1004.89 1004.31 1003.63 1003.63 1003.16 1002.55 1001.69 1001.05 999.73 1000.58 1001.39 1002.27 1003.25 1003.90 1004.54 1005.25 1006.09 1006.84 1007.65
Wind_Speed
14 14 7 9 9 9 15 17 3 6 5 2 4 7 12 14 11 6 6 4 5 14 17 18 15 17 19 19 18 18 18 18 17 16 17 19 17 16 13 12 13 15 16 16 15 15 15 16 13
14 9 9 8 10 14 13 15 7 6 7 2 6 10 12 12 3 4 1 7 4 12 16 18 14 16 18 19 19 18 18 18 18 18 17 18 19 17 15 12 12 14 15 16 16 16 16 14 13
14 8 10 9 13 16 16 15 8 12 6 7 9 9 13 5 3 6 11 3 5 11 14 16 16 16 18 19 20 19 19 18 18 18 18 18 19 18 17 14 13 14 16 16 16 16 15 12 13
7 10 7 12 20 20 20 19 14 4 9 9 8 9 4 9 6 1 6 4 8 11 12 20 17 14 18 19 20 19 18 18 18 18 18 17 19 18 17 15 14 14 15 15 15 15 13 12 12
9 8 13 20 22 20 19 20 19 14 17 17 11 15 16 13 12 15 2 9 9 10 11 15 14 12 16 19 20 20 18 19 19 18 18 18 18 19 18 16 14 14 14 14 15 13 13 11 12
11 11 15 19 23 20 17 16 18 20 19 20 19 19 18 11 13 5 2 10 11 11 10 13 11 12 15 18 19 19 20 20 20 20 18 17 17 17 18 16 14 12 13 14 15 12 13 10 12
16 15 21 26 26 25 22 22 14 19 20 20 18 22 16 11 3 2 2 6 9 8 9 11 13 13 11 14 17 18 20 21 21 21 18 16 14 15 17 16 15 13 15 15 14 12 12 11 10
14 16 28 22 23 28 22 21 12 15 21 17 11 9 7 1 6 2 4 2 4 6 9 11 13 15 15 14 13 18 19 20 21 21 19 14 12 13 15 15 14 16 16 15 14 12 11 12 9
18 16 20 26 27 27 22 22 14 8 15 13 13 13 15 1 7 8 8 10 9 9 11 7 11 12 14 12 14 15 17 19 19 20 20 16 14 15 15 15 16 16 15 15 14 13 12 11 10
16 18 25 25 25 25 24 21 19 22 20 20 18 17 18 15 15 15 12 10 16 15 13 12 13 14 12 11 14 15 15 16 17 18 19 15 15 14 16 15 16 16 15 14 14 13 13 12 9
22 24 25 27 29 28 28 28 25 25 27 21 19 22 21 16 20 18 18 18 15 16 14 14 14 14 15 13 11 10 9 10 13 18 17 15 13 12 11 10 10 11 14 11 12 11 10 13 10
28 29 28 28 28 29 29 29 30 29 30 25 26 24 23 24 23 23 22 21 17 18 18 18 16 15 15 11 11 13 11 11 11 15 17 12 9 12 11 9 13 12 11 13 13 10 11 12 12
26 26 28 28 28 29 29 30 33 32 28 26 27 26 26 26 27 26 25 23 22 20 18 19 19 16 15 11 12 13 14 11 14 15 17 13 13 12 11 11 12 12 13 12 12 12 11 10 11
22 28 30 30 31 31 32 38 34 32 29 30 30 30 29 29 29 28 26 25 23 21 20 17 21 19 15 14 15 13 13 16 14 14 15 17 13 13 12 12 12 12 12 12 12 12 11 9 9
19 25 24 25 28 30 25 45 35 31 30 33 33 31 32 32 30 29 27 26 25 22 22 18 21 22 19 17 14 15 14 15 15 15 18 19 15 16 14 12 12 12 12 15 12 11 10 10 9
26 28 27 22 25 23 23 45 22 25 24 26 22 21 23 24 27 27 27 25 26 23 23 20 16 22 21 19 16 14 14 13 13 15 15 20 18 18 15 12 12 13 11 11 11 10 11 9 10
19 25 28 26 19 22 21 38 22 20 25 26 25 25 25 26 29 23 23 24 24 24 23 20 19 24 23 21 16 16 15 15 13 13 14 20 18 17 15 12 12 15 11 10 11 10 11 10 10
21 26 28 31 21 28 30 36 37 29 31 30 30 29 29 27 29 27 27 25 22 24 22 21 20 20 24 17 14 14 14 14 13 13 14 20 16 18 16 13 14 14 13 12 11 13 11 10 10
21 25 30 28 26 26 29 32 38 31 30 30 28 30 32 30 29 27 28 28 27 22 18 22 20 18 18 16 16 13 15 14 14 14 17 20 18 20 19 13 15 15 14 15 15 12 13 11 10
20 25 26 28 23 23 28 32 35 33 32 31 32 31 30 30 31 31 28 28 30 24 21 21 22 20 18 15 14 11 14 15 14 15 17 17 21 22 18 17 17 17 13 15 16 16 12 9 11
18 19 22 26 27 25 28 28 25 28 27 25 28 29 27 26 25 26 28 28 26 24 21 23 22 21 20 24 14 12 14 12 12 13 14 17 20 22 22 21 16 18 15 13 16 17 18 13 11
17 21 24 23 21 19 21 17 29 22 21 21 23 25 23 25 24 18 19 24 28 23 21 21 23 22 20 25 19 22 16 15 12 14 15 15 18 20 22 22 19 19 14 16 15 15 13 10 12
23 20 21 23 22 19 29 10 11 22 27 29 30 29 25 23 23 26 27 27 30 20 24 23 18 21 21 18 23 19 19 15 15 15 20 17 19 22 22 21 21 20 15 17 18 14 13 9 10
22 18 22 21 17 12 25 14 13 14 15 21 25 25 25 24 23 23 24 23 23 26 24 20 21 23 20 19 24 24 22 19 16 18 15 14 13 15 21 22 20 20 18 20 19 19 18 14 12
19 16 9 4 3 7 15 11 12 15 19 20 20 20 19 19 18 20 25 24 23 24 22 20 19 16 19 20 22 23 22 23 23 22 16 17 14 14 16 21 20 18 20 20 19 18 19 18 15
11 11 8 9 10 19 18 8 10 21 22 22 22 19 17 17 16 20 22 21 23 20 20 19 19 19 21 14 15 20 23 14 16 18 15 13 14 15 18 20 20 23 21 20 20 16 16 17 17
12 14 17 9 19 14 7 5 20 24 23 24 24 21 21 21 20 17 19 20 19 20 18 17 18 20 21 21 17 11 15 19 14 18 15 13 16 14 20 22 21 22 23 23 22 17 21 19 20
13 11 10 5 7 5 11 20 12 19 20 18 20 20 19 18 20 18 20 22 19 20 18 17 21 21 20 21 19 16 19 16 9 11 17 15 17 18 20 20 22 21 21 22 23 19 21 21 17
12 13 6 7 6 4 5 9 10 16 16 17 18 15 16 19 17 17 19 19 19 19 20 23 22 22 24 20 19 19 18 18 16 14 14 11 16 18 19 19 20 21 21 21 20 20 21 22 22
13 19 10 5 9 12 12 10 9 9 13 13 13 15 17 16 18 17 18 18 20 21 21 22 23 22 21 18 19 20 18 18 18 16 15 14 11 10 18 19 19 20 21 22 23 21 17 19 21
Wind_Direction
270 237 268 261 251 227 262 268 21 301 242 100 24 292 334 339 328 17 82 94 154 151 151 165 159 160 156 154 153 152 151 151 149 152 147 142 140 137 136 132 133 132 132 131 129 123 123 120 108
303 287 244 277 256 262 252 246 249 253 39 77 275 255 247 256 333 313 198 126 214 165 152 172 162 162 158 155 153 156 155 154 153 155 154 149 145 139 136 133 133 133 133 131 131 126 124 116 105
264 272 274 243 243 259 274 287 313 24 8 280 274 245 282 265 48 299 51 98 218 164 162 167 156 160 160 157 157 160 159 157 158 157 159 156 150 143 139 137 134 136 134 135 135 129 120 112 105
274 232 233 251 257 268 277 289 295 220 238 208 279 283 163 263 311 263 30 256 211 163 177 135 149 159 160 160 159 162 162 158 159 160 161 164 154 147 142 139 136 137 137 136 139 130 120 112 106
245 264 263 260 256 257 269 279 288 280 280 285 257 251 280 301 283 283 274 259 201 177 163 149 144 160 161 161 163 165 164 161 160 161 163 166 160 150 144 141 141 143 142 137 125 130 119 117 111
258 247 267 266 267 262 253 251 277 283 284 284 275 266 258 273 259 290 38 279 195 186 175 139 151 162 166 166 167 167 166 165 162 161 163 167 164 153 146 144 142 144 136 128 123 130 120 120 117
259 271 269 276 281 276 281 283 262 273 286 280 294 285 292 245 31 39 276 273 208 169 181 150 176 176 168 168 169 167 169 168 165 159 160 164 162 155 149 145 143 138 128 129 129 129 123 118 113
258 275 274 267 273 276 283 281 289 288 269 284 294 271 288 235 59 159 200 179 243 181 189 176 179 180 184 182 170 167 169 170 167 158 152 154 153 153 149 142 138 136 135 135 134 129 125 118 113
264 258 262 264 268 277 281 284 247 233 272 276 274 272 275 205 253 230 212 173 192 194 208 193 182 185 186 185 176 168 168 168 166 158 151 146 176 174 161 170 137 137 137 137 135 131 124 119 117
239 254 262 276 283 287 291 288 288 279 256 255 257 253 248 274 248 245 232 244 190 193 194 189 194 181 186 183 177 182 181 183 184 178 170 173 177 183 183 154 137 137 137 134 132 132 135 166 161
259 259 272 275 281 291 291 284 281 267 256 255 255 259 259 240 265 245 251 250 247 209 190 200 196 203 186 191 181 181 182 188 188 184 177 179 174 182 188 151 154 157 155 158 153 152 173 191 172
273 269 264 268 275 281 282 285 272 265 268 269 265 263 258 256 255 253 254 253 240 247 193 188 200 200 189 187 188 184 183 184 186 184 177 179 175 177 184 166 171 169 175 165 174 174 185 195 190
274 277 279 280 278 277 281 271 272 268 270 267 266 260 258 256 255 257 259 255 255 244 230 186 193 196 194 189 198 192 182 194 186 177 180 185 177 178 183 172 175 171 176 171 179 176 187 184 190
280 284 282 282 282 279 277 273 275 268 269 263 258 256 253 249 251 254 250 248 246 242 239 197 188 191 189 193 195 200 184 186 191 183 181 202 174 175 178 175 181 175 176 169 190 179 186 181 186
280 283 280 271 272 272 281 276 260 266 261 260 258 256 254 251 247 244 248 252 248 240 231 235 185 182 181 195 192 200 183 186 191 180 182 193 184 178 174 175 185 176 176 175 192 178 178 185 186
275 271 275 271 263 265 255 266 268 280 285 286 277 274 270 267 246 245 243 248 252 253 234 227 204 182 180 196 186 211 194 196 192 181 182 189 189 174 176 183 186 172 182 181 184 171 181 184 184
261 269 271 279 275 288 270 273 285 287 291 291 287 284 289 289 286 271 267 238 247 247 240 222 236 184 186 188 195 200 216 191 189 192 178 184 189 180 182 183 186 170 177 187 179 172 183 187 184
298 296 293 294 310 308 294 287 289 290 289 286 284 286 281 274 264 270 272 265 233 235 238 232 218 198 186 189 203 182 210 190 197 194 184 181 187 192 187 184 181 175 176 182 183 175 184 184 184
304 293 290 292 301 299 289 285 286 291 286 285 291 287 283 278 272 264 258 268 268 245 256 214 227 241 187 189 191 186 189 205 190 192 197 182 186 191 186 192 176 176 185 184 181 170 177 177 182
289 286 286 289 297 299 292 288 289 292 294 292 285 282 278 277 278 280 270 253 260 246 235 239 215 223 206 196 195 193 190 202 197 192 188 192 186 185 187 196 180 179 182 183 178 174 169 183 179
284 283 290 295 305 289 278 275 282 290 292 289 280 273 271 273 270 258 261 264 250 254 233 240 229 225 222 192 192 193 193 205 197 192 199 194 188 188 188 194 182 178 182 181 179 179 175 177 184
308 307 299 291 294 301 310 301 285 289 306 333 23 345 9 1 341 329 317 264 256 248 258 233 242 223 221 188 185 193 200 202 197 192 194 198 195 193 191 188 188 180 181 178 183 183 182 173 181
297 310 290 284 277 281 290 277 33 10 355 354 14 7 8 4 1 354 355 344 349 269 256 249 238 219 224 218 188 195 199 199 193 193 195 198 198 191 194 193 190 180 178 178 177 185 189 178 171
300 293 301 284 268 252 269 261 58 16 357 2 5 4 1 359 0 358 357 351 354 346 335 326 250 240 218 226 190 195 203 202 199 195 194 190 193 196 193 194 189 189 183 179 182 186 187 187 184
337 343 311 306 298 284 307 352 41 23 17 10 2 -0 355 353 2 4 8 3 357 349 337 332 334 274 214 216 189 200 205 201 203 202 189 184 193 195 193 192 190 193 190 184 185 188 191 186 187
342 5 338 320 322 305 347 62 36 30 26 19 12 1 355 345 1 17 16 353 358 348 360 358 3 7 5 333 218 195 212 212 215 208 200 194 194 191 190 196 196 197 197 190 186 189 195 197 202
337 337 312 269 263 270 68 33 37 17 24 20 15 5 1 358 359 16 12 16 0 355 6 8 24 33 29 23 9 345 205 215 212 212 215 207 207 193 193 196 198 200 199 197 188 191 190 195 205
348 358 330 312 280 351 49 51 40 14 7 5 6 2 354 353 357 358 9 15 357 8 358 18 34 34 35 32 29 25 25 13 327 231 227 216 216 208 193 195 197 196 200 199 198 199 196 197 205
3 352 311 259 245 298 81 55 356 13 7 3 2 355 359 356 357 357 8 3 1 9 359 23 31 29 39 31 31 32 29 29 36 34 11 314 237 220 207 195 194 197 197 197 198 203 202 198 205
32 358 335 271 81 75 88 74 4 17 11 3 4 5 355 358 4 13 8 3 6 6 12 13 24 23 30 28 30 34 32 32 34 29 21 16 22 13 230 198 192 196 199 196 196 199 198 200 204